GW6199 Weather Reports


Display with metric or nautical units.
time (UTC)temp
F
wind
direction
speed
MPH
gust
MPH
rain 1hr
in
rain 24hr
in
rain mn
in
humidity
%
barometer
mb
20260902203408 97 107 1.0 3.0 0.00 0.00 0.00 51 1017.8
20260902202907 96 109 0.0 2.0 0.00 0.00 0.00 51 1018.1
20260902202403 95 78 0.0 2.0 0.00 0.00 0.00 52 1017.8
20260902201900 96 103 0.0 3.0 0.00 0.00 0.00 52 1018.1
20260902201400 97 86 1.0 3.0 0.00 0.00 0.00 50 1018.0
20260902200900 97 214 2.0 3.0 0.00 0.00 0.00 51 1018.0
20260902200355 96 137 1.0 3.0 0.00 0.00 0.00 51 1018.0
20260902195850 97 119 2.0 4.0 0.00 0.00 0.00 50 1018.0
20260902195350 97 147 0.0 2.0 0.00 0.00 0.00 49 1018.3
20260902194845 97 79 1.0 2.0 0.00 0.00 0.00 52 1018.1
20260902194345 97 239 3.0 4.0 0.00 0.00 0.00 50 1018.3
20260902193840 96 137 2.0 3.0 0.00 0.00 0.00 51 1018.5
20260902193336 96 110 1.0 3.0 0.00 0.00 0.00 52 1018.6
20260902192835 96 84 1.0 1.0 0.00 0.00 0.00 53 1018.5
20260902192334 96 135 1.0 2.0 0.00 0.00 0.00 53 1018.6
20260902191833 96 92 2.0 4.0 0.00 0.00 0.00 52 1018.8
20260902191329 96 88 1.0 3.0 0.00 0.00 0.00 52 1018.8
20260902190824 97 129 1.0 2.0 0.00 0.00 0.00 51 1018.7
20260902190323 98 124 2.0 4.0 0.00 0.00 0.00 50 1018.7
20260902185820 97 81 1.0 2.0 0.00 0.00 0.00 52 1018.9
20260902185317 97 112 2.0 3.0 0.00 0.00 0.00 51 1018.9
20260902184811 97 173 0.0 2.0 0.00 0.00 0.00 51 1018.9
20260902184306 96 160 1.0 4.0 0.00 0.00 0.00 51 1018.7
20260902183801 95 75 1.0 7.0 0.00 0.00 0.00 53 1018.9
20260902183258 95 174 2.0 3.0 0.00 0.00 0.00 54 1019.0
20260902182753 96 105 1.0 2.0 0.00 0.00 0.00 52 1019.1
20260902182250 96 83 1.0 2.0 0.00 0.00 0.00 51 1018.9
20260902181746 95 111 0.0 3.0 0.00 0.00 0.00 52 1019.0
20260902181245 96 194 1.0 3.0 0.00 0.00 0.00 51 1019.0
20260902180740 95 85 2.0 3.0 0.00 0.00 0.00 53 1019.1
20260902180236 95 168 2.0 6.0 0.00 0.00 0.00 54 1019.2
20260902175731 96 151 3.0 6.0 0.00 0.00 0.00 52 1019.1
20260902175226 95 91 1.0 2.0 0.00 0.00 0.00 56 1019.2
20260902174722 95 70 1.0 2.0 0.00 0.00 0.00 55 1019.1
20260902174218 95 112 2.0 3.0 0.00 0.00 0.00 54 1019.2
20260902173713 94 79 1.0 3.0 0.00 0.00 0.00 57 1019.4
20260902173208 94 82 1.0 3.0 0.00 0.00 0.00 56 1019.3
20260902172703 94 195 2.0 3.0 0.00 0.00 0.00 57 1019.4
20260902172202 95 144 1.0 4.0 0.00 0.00 0.00 57 1019.5
20260902171657 95 52 2.0 3.0 0.00 0.00 0.00 57 1019.6
20260902171153 95 191 3.0 4.0 0.00 0.00 0.00 56 1019.6
20260902170649 95 97 1.0 2.0 0.00 0.00 0.00 57 1019.6
20260902170144 94 89 1.0 2.0 0.00 0.00 0.00 58 1019.7
20260902165639 94 115 1.0 3.0 0.00 0.00 0.00 57 1019.6
20260902165138 94 82 1.0 3.0 0.00 0.00 0.00 57 1019.8
20260902164634 94 84 1.0 3.0 0.00 0.00 0.00 57 1019.7
20260902164132 94 90 0.0 1.0 0.00 0.00 0.00 57 1019.6
20260902163628 94 214 3.0 6.0 0.00 0.00 0.00 58 1019.8
20260902163127 94 91 0.0 3.0 0.00 0.00 0.00 60 1019.9
20260902162626 94 84 1.0 3.0 0.00 0.00 0.00 57 1019.7
20260902162121 93 267 2.0 2.0 0.00 0.00 0.00 57 1019.8
20260902161616 93 87 1.0 2.0 0.00 0.00 0.00 58 1020.0
20260902161112 93 189 2.0 2.0 0.00 0.00 0.00 58 1020.0
20260902160608 93 139 2.0 3.0 0.00 0.00 0.00 58 1019.9
20260902160103 93 191 1.0 3.0 0.00 0.00 0.00 59 1020.0
20260902155601 93 147 2.0 2.0 0.00 0.00 0.00 58 1019.9
20260902155100 92 95 1.0 2.0 0.00 0.00 0.00 60 1019.9
20260902154555 92 150 1.0 2.0 0.00 0.00 0.00 60 1020.1
20260902154050 92 85 2.0 2.0 0.00 0.00 0.00 60 1020.1
20260902153548 92 174 1.0 3.0 0.00 0.00 0.00 60 1020.2
20260902153044 91 135 1.0 2.0 0.00 0.00 0.00 62 1020.2
20260902152541 91 92 0.0 2.0 0.00 0.00 0.00 63 1020.2
20260902152036 91 130 2.0 2.0 0.00 0.00 0.00 62 1020.1
20260902151532 91 108 2.0 3.0 0.00 0.00 0.00 63 1020.3
20260902151031 91 95 0.0 2.0 0.00 0.00 0.00 63 1020.3
20260902150526 90 86 0.0 2.0 0.00 0.00 0.00 62 1020.2
20260902150022 90 108 1.0 1.0 0.00 0.00 0.00 64 1020.3
20260902145517 89 125 1.0 2.0 0.00 0.00 0.00 66 1020.4
20260902145016 89 121 1.0 2.0 0.00 0.00 0.00 65 1020.1
20260902144514 89 88 1.0 1.0 0.00 0.00 0.00 67 1020.1
20260902144013 88 110 1.0 2.0 0.00 0.00 0.00 66 1020.2
20260902143509 88 113 2.0 2.0 0.00 0.00 0.00 67 1020.4
20260902143004 87 203 1.0 2.0 0.00 0.00 0.00 68 1020.1
20260902142459 87 139 1.0 2.0 0.00 0.00 0.00 69 1020.1
20260902141954 86 99 0.0 1.0 0.00 0.00 0.00 71 1020.0
20260902141450 86 169 3.0 4.0 0.00 0.00 0.00 68 1020.1
20260902140949 86 97 0.0 1.0 0.00 0.00 0.00 70 1020.1
20260902140445 86 101 0.0 2.0 0.00 0.00 0.00 70 1020.2
20260902135944 85 103 1.0 2.0 0.00 0.00 0.00 71 1020.2
20260902135440 85 117 1.0 3.0 0.00 0.00 0.00 71 1020.1
20260902134939 85 113 1.0 2.0 0.00 0.00 0.00 71 1020.1
20260902134435 84 101 0.0 1.0 0.00 0.00 0.00 71 1020.2
20260902133931 84 78 1.0 3.0 0.00 0.00 0.00 71 1020.2
20260902133431 84 95 0.0 1.0 0.00 0.00 0.00 73 1020.3
20260902132926 83 114 1.0 2.0 0.00 0.00 0.00 74 1020.1
20260902132421 83 108 0.0 3.0 0.00 0.00 0.00 75 1020.1
20260902131915 82 79 1.0 2.0 0.00 0.00 0.00 75 1020.2
20260902131413 82 108 0.0 1.0 0.00 0.00 0.00 76 1020.2
20260902130911 81 90 0.0 0.0 0.00 0.00 0.00 77 1020.2
20260902130408 81 94 0.0 1.0 0.00 0.00 0.00 78 1020.0
20260902125902 81 81 0.0 1.0 0.00 0.00 0.00 78 1020.0
20260902125359 80 86 0.0 1.0 0.00 0.00 0.00 79 1020.0
20260902124855 80 90 0.0 0.0 0.00 0.00 0.00 80 1020.0
20260902124350 79 86 0.0 1.0 0.00 0.00 0.00 81 1020.1
20260902123845 78 97 0.0 1.0 0.00 0.00 0.00 83 1020.0
20260902123342 77 105 0.0 1.0 0.00 0.00 0.00 85 1019.8
20260902122840 77 101 0.0 0.0 0.00 0.00 0.00 86 1019.9
20260902122336 76 104 0.0 0.0 0.00 0.00 0.00 87 1019.8
20260902121836 76 103 0.0 0.0 0.00 0.00 0.00 88 1019.8
20260902121331 75 104 0.0 0.0 0.00 0.00 0.00 88 1019.8
20260902120826 75 104 0.0 0.0 0.00 0.00 0.00 89 1019.9
20260902120322 75 102 0.0 0.0 0.00 0.00 0.00 89 1019.6
20260902115817 74 99 0.0 0.0 0.00 0.00 0.00 91 1019.7
20260902115314 74 99 0.0 0.0 0.00 0.00 0.00 91 1019.6
20260902114809 73 99 0.0 0.0 0.00 0.00 0.00 92 1019.5
20260902114305 73 99 0.0 0.0 0.00 0.00 0.00 92 1019.5
20260902113805 73 98 0.0 0.0 0.00 0.00 0.00 92 1019.6
20260902113300 73 98 0.0 0.0 0.00 0.00 0.00 92 1019.6
20260902112800 73 101 0.0 0.0 0.00 0.00 0.00 92 1019.3
20260902112257 73 100 0.0 0.0 0.00 0.00 0.00 93 1019.3
20260902111752 73 100 0.0 0.0 0.00 0.00 0.00 93 1019.4
20260902111249 73 100 0.0 0.0 0.00 0.00 0.00 93 1019.2
20260902110744 73 102 0.0 0.0 0.00 0.00 0.00 92 1019.3
20260902110240 73 102 0.0 0.0 0.00 0.00 0.00 92 1019.3
20260902105739 73 102 0.0 0.0 0.00 0.00 0.00 92 1019.2
20260902105235 73 103 0.0 0.0 0.00 0.00 0.00 92 1019.3
20260902104730 73 103 0.0 0.0 0.00 0.00 0.00 92 1019.4
20260902104226 73 98 0.0 0.0 0.00 0.00 0.00 93 1019.3
20260902103725 73 100 0.0 0.0 0.00 0.00 0.00 92 1019.3
20260902103225 73 100 0.0 0.0 0.00 0.00 0.00 92 1019.3
20260902102721 73 100 0.0 0.0 0.00 0.00 0.00 92 1019.3
20260902102218 73 100 0.0 0.0 0.00 0.00 0.00 92 1019.2
20260902101713 73 100 0.0 0.0 0.00 0.00 0.00 93 1019.4
20260902101208 73 101 0.0 0.0 0.00 0.00 0.00 93 1019.2
20260902100702 73 101 0.0 0.0 0.00 0.00 0.00 93 1019.2
20260902100157 73 94 0.0 0.0 0.00 0.00 0.00 93 1019.2
20260902095656 73 94 0.0 0.0 0.00 0.00 0.00 93 1019.2
20260902095155 73 98 0.0 0.0 0.00 0.00 0.00 92 1019.1
20260902094651 73 98 0.0 0.0 0.00 0.00 0.00 92 1019.2
20260902094147 73 98 0.0 0.0 0.00 0.00 0.00 92 1018.9
20260902093646 73 98 0.0 0.0 0.00 0.00 0.00 93 1019.1
20260902093141 73 97 0.0 0.0 0.00 0.00 0.00 92 1019.1
20260902092636 73 97 0.0 0.0 0.00 0.00 0.00 92 1019.1
20260902092131 73 98 0.0 0.0 0.00 0.00 0.00 92 1019.1
20260902091626 73 98 0.0 0.0 0.00 0.00 0.00 91 1019.0
20260902091122 74 98 0.0 0.0 0.00 0.00 0.00 91 1019.0
20260902090618 74 98 0.0 0.0 0.00 0.00 0.00 92 1019.1
20260902090117 73 94 0.0 0.0 0.00 0.00 0.00 92 1019.0
20260902085612 73 94 0.0 0.0 0.00 0.00 0.00 91 1018.8
20260902085107 74 94 0.0 0.0 0.00 0.00 0.00 91 1018.8
20260902084603 74 94 0.0 0.0 0.00 0.00 0.00 92 1018.9
20260902084058 74 95 0.0 0.0 0.00 0.00 0.00 91 1018.8
20260902083554 74 95 0.0 0.0 0.00 0.00 0.00 91 1018.6
20260902083053 74 95 0.0 0.0 0.00 0.00 0.00 90 1018.7
20260902082549 74 95 0.0 0.0 0.00 0.00 0.00 90 1018.5
20260902082045 74 95 0.0 0.0 0.00 0.00 0.00 90 1018.5
20260902081542 74 100 0.0 0.0 0.00 0.00 0.00 90 1018.5
20260902081041 75 100 0.0 0.0 0.00 0.00 0.00 89 1018.4
20260902080537 75 99 0.0 0.0 0.00 0.00 0.00 89 1018.3
20260902080033 75 98 0.0 0.0 0.00 0.00 0.00 89 1018.5
20260902075533 75 98 0.0 0.0 0.00 0.00 0.00 88 1018.4
20260902075029 75 98 0.0 0.0 0.00 0.00 0.00 88 1018.4
20260902074524 75 102 0.0 0.0 0.00 0.00 0.00 88 1018.3
20260902074019 75 102 0.0 0.0 0.00 0.00 0.00 87 1018.4
20260902073515 76 103 0.0 0.0 0.00 0.00 0.00 87 1018.4
20260902073011 76 103 0.0 0.0 0.00 0.00 0.00 87 1018.5
20260902072506 76 107 0.0 0.0 0.00 0.00 0.00 87 1018.4
20260902072003 76 104 0.0 0.0 0.00 0.00 0.00 87 1018.2
20260902071502 76 104 0.0 0.0 0.00 0.00 0.00 87 1018.3
20260902070959 76 104 0.0 0.0 0.00 0.00 0.00 87 1018.4
20260902070454 76 104 0.0 0.0 0.00 0.00 0.00 86 1018.4
20260902065952 76 104 0.0 0.0 0.00 0.00 0.00 86 1018.4
20260902065448 76 103 0.0 0.0 0.00 0.00 0.00 86 1018.3
20260902064943 76 105 0.0 0.0 0.00 0.00 0.00 85 1018.3
20260902064439 77 102 0.0 0.0 0.00 0.00 0.00 85 1018.3
20260902063934 77 101 0.0 0.0 0.00 0.00 0.00 85 1018.6
20260902063434 77 105 0.0 0.0 0.00 0.00 0.00 85 1018.2
20260902062929 77 100 0.0 0.0 0.00 0.00 0.00 85 1018.3
20260902062428 77 100 0.0 0.0 0.00 0.00 0.00 85 1018.4
20260902061923 77 100 0.0 0.0 0.00 0.00 0.00 84 1018.4
20260902061418 77 100 0.0 0.0 0.00 0.00 0.00 84 1018.3
20260902060914 77 100 0.0 0.0 0.00 0.00 0.00 84 1018.5
20260902060410 77 94 0.0 0.0 0.00 0.00 0.00 84 1018.3
20260902055905 77 94 0.0 0.0 0.00 0.00 0.00 83 1018.5
20260902055401 78 100 0.0 0.0 0.00 0.00 0.00 83 1018.4
20260902054856 78 101 0.0 0.0 0.00 0.00 0.00 82 1018.4
20260902054352 78 102 0.0 0.0 0.00 0.00 0.00 82 1018.6
20260902053847 78 100 0.0 0.0 0.00 0.00 0.00 82 1018.6
20260902053342 78 100 0.0 0.0 0.00 0.00 0.00 81 1018.3
20260902052841 79 102 0.0 0.0 0.00 0.00 0.00 80 1018.6
20260902052337 79 106 0.0 0.0 0.00 0.00 0.00 80 1018.7
20260902051838 79 101 0.0 0.0 0.00 0.00 0.00 80 1018.6
20260902051332 79 101 0.0 0.0 0.00 0.00 0.00 79 1018.6
20260902050831 79 109 0.0 1.0 0.00 0.00 0.00 80 1018.5
20260902050331 78 106 0.0 1.0 0.00 0.00 0.00 80 1018.5
20260902045826 78 109 0.0 0.0 0.00 0.00 0.00 81 1018.6
20260902045322 78 103 0.0 0.0 0.00 0.00 0.00 82 1018.5
20260902044818 78 96 0.0 0.0 0.00 0.00 0.00 82 1018.4
20260902044313 78 100 0.0 0.0 0.00 0.00 0.00 82 1018.5
20260902043808 78 96 0.0 0.0 0.00 0.00 0.00 82 1018.4
20260902043304 78 95 0.0 0.0 0.00 0.00 0.00 81 1018.4
20260902042803 78 95 0.0 0.0 0.00 0.00 0.00 81 1018.5
20260902042258 78 88 0.0 0.0 0.00 0.00 0.00 80 1018.6
20260902041753 78 88 0.0 0.0 0.00 0.00 0.00 80 1018.7
20260902041253 79 88 0.0 0.0 0.00 0.00 0.00 79 1018.6
20260902040752 79 93 0.0 0.0 0.00 0.00 0.00 79 1018.5
20260902040248 79 93 0.0 0.0 0.00 0.00 0.00 78 1018.6
20260902035746 80 93 0.0 0.0 0.00 0.00 0.00 77 1018.5
20260902035242 80 98 0.0 0.0 0.00 0.00 0.00 77 1018.6
20260902034741 80 98 0.0 0.0 0.00 0.00 0.00 75 1018.6
20260902034236 81 93 0.0 1.0 0.00 0.00 0.00 75 1018.7
20260902033734 81 99 0.0 0.0 0.00 0.00 0.00 75 1018.5
20260902033229 81 102 0.0 0.0 0.00 0.00 0.00 75 1018.5
20260902032727 82 104 0.0 1.0 0.00 0.00 0.00 75 1018.7
20260902032223 82 105 0.0 1.0 0.00 0.00 0.00 74 1018.5
20260902031722 82 103 0.0 0.0 0.00 0.00 0.00 74 1018.3
20260902031218 82 103 0.0 0.0 0.00 0.00 0.00 74 1018.5
20260902030714 82 101 0.0 0.0 0.00 0.00 0.00 74 1018.4
20260902030214 82 100 0.0 0.0 0.00 0.00 0.00 73 1018.5
20260902025714 82 103 0.0 0.0 0.00 0.00 0.00 73 1018.5
20260902025209 82 104 0.0 1.0 0.00 0.00 0.00 73 1018.5
20260902024709 82 99 0.0 0.0 0.00 0.00 0.00 73 1018.6
20260902024204 82 103 0.0 0.0 0.00 0.00 0.00 74 1018.5
20260902023659 82 96 0.0 0.0 0.00 0.00 0.00 74 1018.3
20260902023155 82 93 0.0 0.0 0.00 0.00 0.00 74 1018.5
20260902022654 82 98 0.0 0.0 0.00 0.00 0.00 73 1018.7
20260902022150 82 102 0.0 0.0 0.00 0.00 0.00 73 1018.7
20260902021646 82 103 0.0 0.0 0.00 0.00 0.00 73 1018.4
20260902021146 82 101 0.0 0.0 0.00 0.00 0.00 74 1018.6
20260902020642 82 96 0.0 0.0 0.00 0.00 0.00 74 1018.5
20260902020138 82 98 0.0 0.0 0.00 0.00 0.00 74 1018.5
20260902015633 82 98 0.0 0.0 0.00 0.00 0.00 74 1018.8
20260902015130 83 100 0.0 0.0 0.00 0.00 0.00 73 1018.5
20260902014625 83 98 0.0 0.0 0.00 0.00 0.00 73 1018.7
20260902014120 83 95 0.0 0.0 0.00 0.00 0.00 72 1018.7
20260902013619 83 100 0.0 0.0 0.00 0.00 0.00 72 1018.6
20260902013115 83 98 0.0 0.0 0.00 0.00 0.00 72 1018.4
20260902012611 83 97 0.0 0.0 0.00 0.00 0.00 71 1018.5
20260902012106 84 98 0.0 0.0 0.00 0.00 0.00 70 1018.5
20260902011601 84 98 0.0 0.0 0.00 0.00 0.00 69 1018.3
20260902011101 85 97 0.0 0.0 0.00 0.00 0.00 68 1018.3
20260902010600 85 102 0.0 0.0 0.00 0.00 0.00 67 1018.2
20260902010056 86 100 0.0 0.0 0.00 0.00 0.00 66 1018.1
20260902005554 86 106 1.0 1.0 0.00 0.00 0.00 65 1017.9
20260902005050 86 102 0.0 1.0 0.00 0.00 0.00 65 1018.1
20260902004549 86 105 0.0 0.0 0.00 0.00 0.00 65 1018.1
20260902004045 87 103 0.0 1.0 0.00 0.00 0.00 65 1017.9
20260902003540 87 107 0.0 2.0 0.00 0.00 0.00 64 1018.0
20260902003036 87 97 0.0 1.0 0.00 0.00 0.00 64 1018.1
20260902002531 87 111 0.0 1.0 0.00 0.00 0.00 64 1018.2
20260902002027 87 118 1.0 1.0 0.00 0.00 0.00 64 1018.1
20260902001526 88 103 0.0 1.0 0.00 0.00 0.00 63 1018.2
20260902001022 88 96 0.0 1.0 0.00 0.00 0.00 63 1018.2
20260902000516 88 101 0.0 1.0 0.00 0.00 0.00 63 1018.1
20260902000012 88 142 1.0 1.0 0.00 0.00 0.00 62 1018.2
20260901235506 89 137 1.0 1.0 0.00 0.00 0.00 62 1018.2
20260901235002 89 103 0.0 2.0 0.00 0.00 0.00 62 1018.2
20260901234455 89 104 1.0 1.0 0.00 0.00 0.00 62 1018.2
20260901233955 89 98 0.0 2.0 0.00 0.00 0.00 62 1018.2
20260901233451 90 109 0.0 2.0 0.00 0.00 0.00 61 1018.3
20260901232947 90 99 0.0 1.0 0.00 0.00 0.00 59 1018.4
20260901232442 90 101 0.0 1.0 0.00 0.00 0.00 59 1018.4
20260901231937 91 88 0.0 2.0 0.00 0.00 0.00 58 1018.3
20260901231433 92 100 0.0 1.0 0.00 0.00 0.00 57 1018.3
20260901230930 93 107 0.0 1.0 0.00 0.00 0.00 56 1018.3
20260901230429 93 104 0.0 1.0 0.00 0.00 0.00 55 1018.4
20260901225925 93 96 0.0 1.0 0.00 0.00 0.00 55 1018.3
20260901225424 93 117 1.0 1.0 0.00 0.00 0.00 54 1018.4
20260901224919 93 102 0.0 1.0 0.00 0.00 0.00 53 1018.1
20260901224415 93 94 0.0 2.0 0.00 0.00 0.00 54 1018.1
20260901223912 94 126 0.0 1.0 0.00 0.00 0.00 53 1018.4
20260901223406 94 124 1.0 2.0 0.00 0.00 0.00 53 1018.2
20260901222902 94 97 1.0 3.0 0.00 0.00 0.00 52 1018.2
20260901222359 94 91 1.0 2.0 0.00 0.00 0.00 52 1018.2
20260901221854 94 108 2.0 3.0 0.00 0.00 0.00 52 1018.1
20260901221350 95 160 1.0 3.0 0.00 0.00 0.00 50 1018.1
20260901220849 95 107 0.0 2.0 0.00 0.00 0.00 53 1018.1
20260901220348 95 91 1.0 2.0 0.00 0.00 0.00 52 1018.0
20260901215848 96 152 1.0 4.0 0.00 0.00 0.00 52 1018.1
20260901215347 96 145 1.0 2.0 0.00 0.00 0.00 51 1018.1
20260901214845 95 120 1.0 2.0 0.00 0.00 0.00 51 1018.2
20260901214345 95 114 1.0 2.0 0.00 0.00 0.00 51 1018.2
20260901213844 96 174 2.0 2.0 0.00 0.00 0.00 50 1018.0
20260901213339 96 48 1.0 3.0 0.00 0.00 0.00 51 1018.3
20260901212833 95 117 1.0 2.0 0.00 0.00 0.00 51 1018.1
20260901212329 96 119 2.0 4.0 0.00 0.00 0.00 51 1018.2
20260901211825 96 113 0.0 2.0 0.00 0.00 0.00 51 1018.2
20260901211321 96 138 1.0 2.0 0.00 0.00 0.00 49 1018.3
20260901210816 96 161 2.0 2.0 0.00 0.00 0.00 50 1018.1
20260901210312 96 102 0.0 3.0 0.00 0.00 0.00 50 1018.2
20260901205808 96 216 2.0 2.0 0.00 0.00 0.00 48 1018.2
20260901205308 96 87 1.0 8.0 0.00 0.00 0.00 49 1018.4
20260901204803 96 175 2.0 3.0 0.00 0.00 0.00 51 1018.3
20260901204300 96 83 0.0 2.0 0.00 0.00 0.00 51 1018.4
20260901203759 96 87 2.0 2.0 0.00 0.00 0.00 49 1018.4